,,,PA_Meas_PMT16A,,PR_Meas_QMR101_102,,RH_Meas_QMH101,,SR_Meas_QMS101,,TA_Meas_QMH101,,GenWind,,GenWind,
date,time,status,PA,status,PR,status,RH,status,SR,status,TA,status,DirAvg,status,SpdAvg,
2010-05-15, 00:00:05,VALID,997.762,VALID,0,VALID,93.6841,VALID,0,VALID,24.1891,VALID,12,VALID,0.276172,
2010-05-15, 00:01:05,VALID,997.74,VALID,0,VALID,93.6231,VALID,0,VALID,24.1305,VALID,158,VALID,0.405469,
2010-05-15, 00:02:05,VALID,997.744,VALID,0,VALID,93.6231,VALID,0,VALID,24.111,VALID,158,VALID,0,
2010-05-15, 00:03:05,VALID,997.722,VALID,0,VALID,93.6688,VALID,0,VALID,24.1287,VALID,158,VALID,0.183984,
2010-05-15, 00:04:05,VALID,997.695,VALID,0,VALID,93.646,VALID,0,VALID,24.1696,VALID,158,VALID,0.142578,
2010-05-15, 00:05:05,VALID,997.691,VALID,0,VALID,93.6688,VALID,0,VALID,24.1677,VALID,158,VALID,0.180859,
2010-05-15, 00:06:05,VALID,997.664,VALID,0,VALID,93.6841,VALID,0,VALID,24.1872,VALID,158,VALID,0.133984,
2010-05-15, 00:07:05,VALID,997.693,VALID,0,VALID,93.6841,VALID,0,VALID,24.2086,VALID,158,VALID,0,
2010-05-15, 00:08:05,VALID,997.654,VALID,0,VALID,93.6994,VALID,0,VALID,24.2067,VALID,158,VALID,0,
2010-05-15, 00:09:05,VALID,997.652,VALID,0,VALID,93.6994,VALID,0,VALID,24.2476,VALID,158,VALID,0,
2010-05-15, 00:10:05,VALID,997.672,VALID,0,VALID,93.6917,VALID,0,VALID,24.2671,VALID,158,VALID,0,
2010-05-15, 00:11:05,VALID,997.649,VALID,0,VALID,93.6994,VALID,0,VALID,24.2458,VALID,158,VALID,0,
2010-05-15, 00:12:05,VALID,997.685,VALID,0,VALID,93.7146,VALID,0,VALID,24.2671,VALID,158,VALID,0,
2010-05-15, 00:13:05,VALID,997.651,VALID,0,VALID,93.707,VALID,0,VALID,24.2458,VALID,158,VALID,0,
2010-05-15, 00:14:05,VALID,997.687,VALID,0,VALID,93.6994,VALID,0,VALID,24.2671,VALID,158,VALID,0,
2010-05-15, 00:15:05,VALID,997.695,VALID,0,VALID,93.7146,VALID,0,VALID,24.2263,VALID,158,VALID,0.0078125,
2010-05-15, 00:16:05,VALID,997.68,VALID,0,VALID,93.6612,VALID,0,VALID,24.2086,VALID,158,VALID,0.261719,
2010-05-15, 00:17:05,VALID,997.686,VALID,0,VALID,93.6841,VALID,0,VALID,24.1872,VALID,158,VALID,0.316406,
2010-05-15, 00:18:05,VALID,997.689,VALID,0,VALID,93.6917,VALID,0,VALID,24.1677,VALID,158,VALID,0.330078,
2010-05-15, 00:19:05,VALID,997.715,VALID,0,VALID,93.7146,VALID,0,VALID,24.2086,VALID,158,VALID,0.292969,
2010-05-15, 00:20:05,VALID,997.709,VALID,0,VALID,93.7299,VALID,0,VALID,24.2476,VALID,158,VALID,0.364453,
2010-05-15, 00:21:05,VALID,997.726,VALID,0,VALID,93.7299,VALID,0,VALID,24.2263,VALID,158,VALID,0.164453,
2010-05-15, 00:22:05,VALID,997.693,VALID,0,VALID,93.7223,VALID,0,VALID,24.2263,VALID,158,VALID,0.251172,
2010-05-15, 00:23:05,VALID,997.71,VALID,0,VALID,93.7223,VALID,0.112286,VALID,24.2458,VALID,158,VALID,0.502734,
2010-05-15, 00:24:05,VALID,997.709,VALID,0,VALID,93.6994,VALID,0,VALID,24.2263,VALID,158,VALID,0.863281,
2010-05-15, 00:25:05,VALID,997.721,VALID,0,VALID,93.7223,VALID,0,VALID,24.2067,VALID,158,VALID,0.66875,
2010-05-15, 00:26:05,VALID,997.689,VALID,0,VALID,93.7146,VALID,0,VALID,24.2263,VALID,158,VALID,0.41875,
2010-05-15, 00:27:05,VALID,997.733,VALID,0,VALID,93.6917,VALID,0,VALID,24.1872,VALID,158,VALID,0.803516,
2010-05-15, 00:28:05,VALID,997.751,VALID,0,VALID,93.6536,VALID,0,VALID,24.1696,VALID,354,VALID,0.752734,
2010-05-15, 00:29:05,VALID,997.723,VALID,0,VALID,93.7223,VALID,0,VALID,24.1677,VALID,354,VALID,0.669141,
2010-05-15, 00:30:05,VALID,997.735,VALID,0,VALID,93.6994,VALID,0,VALID,24.1482,VALID,355,VALID,1.03437,
2010-05-15, 00:31:05,VALID,997.692,VALID,0,VALID,93.7146,VALID,0.112286,VALID,24.1287,VALID,351,VALID,0.996875,
2010-05-15, 00:32:05,VALID,997.688,VALID,0,VALID,93.7146,VALID,0,VALID,24.1891,VALID,349,VALID,0.678516,
2010-05-15, 00:33:05,VALID,997.668,VALID,0,VALID,93.7451,VALID,0,VALID,24.1872,VALID,349,VALID,0.480859,
2010-05-15, 00:34:05,VALID,997.688,VALID,0,VALID,93.6078,VALID,0,VALID,24.15,VALID,50,VALID,0.916016,
2010-05-15, 00:35:05,VALID,997.643,VALID,0,VALID,93.707,VALID,0,VALID,24.0701,VALID,33,VALID,0.849609,
2010-05-15, 00:36:05,VALID,997.605,VALID,0,VALID,93.768,VALID,0.112286,VALID,24.1677,VALID,353,VALID,0.8375,
2010-05-15, 00:37:05,VALID,997.575,VALID,0,VALID,93.7604,VALID,0.112286,VALID,24.2067,VALID,350,VALID,0.469141,
2010-05-15, 00:38:05,VALID,997.578,VALID,0,VALID,93.7604,VALID,0,VALID,24.1872,VALID,352,VALID,0.670313,
2010-05-15, 00:39:05,VALID,997.545,VALID,0,VALID,93.768,VALID,0,VALID,24.2067,VALID,8,VALID,0.859375,
2010-05-15, 00:40:05,VALID,997.529,VALID,0,VALID,93.768,VALID,0,VALID,24.2067,VALID,8,VALID,0.654297,
2010-05-15, 00:41:05,VALID,997.543,VALID,0,VALID,93.7223,VALID,0,VALID,24.1872,VALID,8,VALID,0.738281,
2010-05-15, 00:42:05,VALID,997.497,VALID,0,VALID,93.6841,VALID,0,VALID,24.1482,VALID,8,VALID,0.642969,
2010-05-15, 00:43:05,VALID,997.486,VALID,0,VALID,93.6765,VALID,0,VALID,24.1092,VALID,8,VALID,0.469531,
2010-05-15, 00:44:05,VALID,997.457,VALID,0,VALID,93.6917,VALID,0,VALID,24.1092,VALID,8,VALID,0.432031,
2010-05-15, 00:45:05,VALID,997.489,VALID,0,VALID,93.6765,VALID,0,VALID,24.111,VALID,8,VALID,0.405078,
2010-05-15, 00:46:05,VALID,997.467,VALID,0,VALID,93.6536,VALID,0.112286,VALID,24.0701,VALID,71,VALID,0.739844,
2010-05-15, 00:47:05,VALID,997.45,VALID,0,VALID,93.6994,VALID,0,VALID,24.0506,VALID,69,VALID,0.8125,
2010-05-15, 00:48:04,VALID,997.434,VALID,0,VALID,93.6917,VALID,0,VALID,24.0915,VALID,62,VALID,0.519922,
2010-05-15, 00:49:04,VALID,997.401,VALID,0,VALID,93.6688,VALID,0,VALID,24.0897,VALID,356,VALID,0.746484,
2010-05-15, 00:50:04,VALID,997.409,VALID,0,VALID,93.707,VALID,0,VALID,24.111,VALID,352,VALID,0.183984,
2010-05-15, 00:51:04,VALID,997.445,VALID,0,VALID,93.6536,VALID,0,VALID,24.0311,VALID,94,VALID,0.975781,
2010-05-15, 00:52:04,VALID,997.398,VALID,0,VALID,93.6841,VALID,0,VALID,24.0525,VALID,106,VALID,1.02695,
2010-05-15, 00:53:04,VALID,997.392,VALID,0,VALID,93.7223,VALID,0,VALID,24.072,VALID,129,VALID,0.760547,
2010-05-15, 00:54:04,VALID,997.383,VALID,0,VALID,93.7451,VALID,0,VALID,24.0897,VALID,131,VALID,0.839453,
2010-05-15, 00:55:04,VALID,997.313,VALID,0,VALID,93.7757,VALID,0,VALID,24.1287,VALID,127,VALID,0.657031,
2010-05-15, 00:56:04,VALID,997.291,VALID,0,VALID,93.7528,VALID,0,VALID,24.1482,VALID,127,VALID,0.328516,
2010-05-15, 00:57:04,VALID,997.25,VALID,0,VALID,93.7604,VALID,0,VALID,24.1677,VALID,127,VALID,0.0441406,
2010-05-15, 00:58:04,VALID,997.266,VALID,0,VALID,93.7757,VALID,0,VALID,24.2067,VALID,127,VALID,0.442187,
2010-05-15, 00:59:04,VALID,997.227,VALID,0,VALID,93.7985,VALID,0,VALID,24.2263,VALID,137,VALID,0.931641,
2010-05-15, 01:00:04,VALID,997.197,VALID,0,VALID,93.768,VALID,0,VALID,24.2458,VALID,173,VALID,0.874219,
2010-05-15, 01:01:04,VALID,997.206,VALID,0,VALID,93.7909,VALID,0,VALID,24.3062,VALID,189,VALID,0.763672,
2010-05-15, 01:02:04,VALID,997.198,VALID,0,VALID,93.8062,VALID,0,VALID,24.3238,VALID,189,VALID,0.783594,
2010-05-15, 01:03:04,VALID,997.218,VALID,0,VALID,93.7833,VALID,0,VALID,24.3647,VALID,181,VALID,0.697266,
2010-05-15, 01:04:04,VALID,997.199,VALID,0,VALID,93.7833,VALID,0,VALID,24.3629,VALID,181,VALID,0.569141,
2010-05-15, 01:05:04,VALID,997.187,VALID,0,VALID,93.768,VALID,0,VALID,24.3842,VALID,181,VALID,0.20625,
2010-05-15, 01:06:04,VALID,997.185,VALID,0,VALID,93.768,VALID,0,VALID,24.4037,VALID,181,VALID,0.096875,
2010-05-15, 01:07:04,VALID,997.173,VALID,0,VALID,93.7528,VALID,0,VALID,24.3824,VALID,181,VALID,0.203516,
2010-05-15, 01:08:04,VALID,997.206,VALID,0,VALID,93.7528,VALID,0,VALID,24.3824,VALID,181,VALID,0.259375,
2010-05-15, 01:09:04,VALID,997.151,VALID,0,VALID,93.7375,VALID,0,VALID,24.4019,VALID,181,VALID,0.0207031,
2010-05-15, 01:10:04,VALID,997.159,VALID,0,VALID,93.7299,VALID,0,VALID,24.3824,VALID,181,VALID,0,
2010-05-15, 01:11:04,VALID,997.133,VALID,0,VALID,93.6917,VALID,0,VALID,24.4037,VALID,181,VALID,0.112891,
2010-05-15, 01:12:04,VALID,997.151,VALID,0,VALID,93.646,VALID,0,VALID,24.3433,VALID,181,VALID,0.51875,
2010-05-15, 01:13:04,VALID,997.126,VALID,0,VALID,93.6383,VALID,0,VALID,24.3257,VALID,181,VALID,0.4375,
2010-05-15, 01:14:04,VALID,997.143,VALID,0,VALID,93.646,VALID,0,VALID,24.3257,VALID,181,VALID,0.108594,
2010-05-15, 01:15:04,VALID,997.131,VALID,0,VALID,93.6231,VALID,0,VALID,24.3043,VALID,181,VALID,0,
2010-05-15, 01:16:04,VALID,997.151,VALID,0,VALID,93.6154,VALID,0,VALID,24.2848,VALID,181,VALID,0,
2010-05-15, 01:17:04,VALID,997.118,VALID,0,VALID,93.6154,VALID,0,VALID,24.2848,VALID,181,VALID,0,
2010-05-15, 01:18:04,VALID,997.131,VALID,0,VALID,93.6078,VALID,0,VALID,24.2848,VALID,181,VALID,0.0996094,
2010-05-15, 01:19:04,VALID,997.129,VALID,0,VALID,93.6078,VALID,0,VALID,24.2866,VALID,181,VALID,0.520312,
2010-05-15, 01:20:04,VALID,997.099,VALID,0,VALID,93.6154,VALID,0,VALID,24.3062,VALID,181,VALID,0.526172,
2010-05-15, 01:21:04,VALID,997.082,VALID,0,VALID,93.5926,VALID,0,VALID,24.3062,VALID,181,VALID,0.110547,
2010-05-15, 01:22:04,VALID,997.104,VALID,0,VALID,93.6078,VALID,0,VALID,24.2866,VALID,181,VALID,0,
2010-05-15, 01:23:04,VALID,997.066,VALID,0,VALID,93.5773,VALID,0,VALID,24.2653,VALID,292,VALID,0,
2010-05-15, 01:24:04,VALID,997.077,VALID,0,VALID,93.5697,VALID,0,VALID,24.2653,VALID,292,VALID,0,
2010-05-15, 01:25:04,VALID,997.084,VALID,0,VALID,93.5926,VALID,0,VALID,24.2653,VALID,292,VALID,0,
2010-05-15, 01:26:04,VALID,997.055,VALID,0,VALID,93.562,VALID,0,VALID,24.2458,VALID,292,VALID,0,
2010-05-15, 01:27:04,VALID,997.024,VALID,0,VALID,93.562,VALID,0,VALID,24.2263,VALID,310,VALID,0,
2010-05-15, 01:28:04,VALID,997.007,VALID,0,VALID,93.562,VALID,0,VALID,24.2281,VALID,9,VALID,0,
2010-05-15, 01:29:04,VALID,997.006,VALID,0,VALID,93.5697,VALID,0,VALID,24.2067,VALID,6,VALID,0,
2010-05-15, 01:30:04,VALID,996.956,VALID,0,VALID,93.5849,VALID,0,VALID,24.2281,VALID,358,VALID,0,
2010-05-15, 01:31:04,VALID,996.986,VALID,0,VALID,93.6078,VALID,0,VALID,24.2458,VALID,358,VALID,0,
2010-05-15, 01:32:04,VALID,996.947,VALID,0,VALID,93.6078,VALID,0,VALID,24.2653,VALID,358,VALID,0,
2010-05-15, 01:33:04,VALID,996.942,VALID,0,VALID,93.6231,VALID,0,VALID,24.2458,VALID,358,VALID,0,
2010-05-15, 01:34:04,VALID,996.93,VALID,0,VALID,93.6231,VALID,0,VALID,24.2458,VALID,358,VALID,0,
2010-05-15, 01:35:04,VALID,996.899,VALID,0,VALID,93.6231,VALID,0,VALID,24.2458,VALID,358,VALID,0,
2010-05-15, 01:36:04,VALID,996.916,VALID,0,VALID,93.6231,VALID,0,VALID,24.2671,VALID,358,VALID,0,
2010-05-15, 01:37:04,VALID,996.905,VALID,0,VALID,93.6154,VALID,0,VALID,24.2671,VALID,358,VALID,0,
2010-05-15, 01:38:04,VALID,996.901,VALID,0,VALID,93.5773,VALID,0,VALID,24.2281,VALID,358,VALID,0,
2010-05-15, 01:39:04,VALID,996.884,VALID,0,VALID,93.6154,VALID,0,VALID,24.2067,VALID,358,VALID,0,
2010-05-15, 01:40:04,VALID,996.873,VALID,0,VALID,93.6078,VALID,0,VALID,24.2281,VALID,358,VALID,0,
2010-05-15, 01:41:04,VALID,996.855,VALID,0,VALID,93.646,VALID,0,VALID,24.2671,VALID,358,VALID,0,
2010-05-15, 01:42:04,VALID,996.868,VALID,0,VALID,93.6612,VALID,0,VALID,24.2653,VALID,358,VALID,0,
2010-05-15, 01:43:04,VALID,996.878,VALID,0,VALID,93.6841,VALID,0,VALID,24.2653,VALID,358,VALID,0,
2010-05-15, 01:44:04,VALID,996.892,VALID,0,VALID,93.6765,VALID,0,VALID,24.2848,VALID,358,VALID,0,
2010-05-15, 01:45:04,VALID,996.9,VALID,0,VALID,93.6765,VALID,0,VALID,24.3043,VALID,358,VALID,0,
2010-05-15, 01:46:04,VALID,996.895,VALID,0,VALID,93.6841,VALID,0,VALID,24.2848,VALID,358,VALID,0,
2010-05-15, 01:47:04,VALID,996.874,VALID,0,VALID,93.6688,VALID,0,VALID,24.3062,VALID,358,VALID,0,
2010-05-15, 01:48:04,VALID,996.869,VALID,0,VALID,93.6917,VALID,0,VALID,24.3062,VALID,358,VALID,0,
2010-05-15, 01:49:04,VALID,996.876,VALID,0,VALID,93.6994,VALID,0,VALID,24.3062,VALID,358,VALID,0,
2010-05-15, 01:50:04,VALID,996.867,VALID,0,VALID,93.6765,VALID,0,VALID,24.3043,VALID,358,VALID,0,
2010-05-15, 01:51:04,VALID,996.863,VALID,0,VALID,93.6917,VALID,0,VALID,24.3043,VALID,358,VALID,0,
2010-05-15, 01:52:04,VALID,996.878,VALID,0,VALID,93.6688,VALID,0,VALID,24.2848,VALID,358,VALID,0,
2010-05-15, 01:53:04,VALID,996.864,VALID,0,VALID,93.6765,VALID,0,VALID,24.3043,VALID,358,VALID,0,
2010-05-15, 01:54:04,VALID,996.911,VALID,0,VALID,93.6841,VALID,0,VALID,24.3043,VALID,358,VALID,0,
2010-05-15, 01:55:04,VALID,996.929,VALID,0,VALID,93.7146,VALID,0,VALID,24.3257,VALID,358,VALID,0,
2010-05-15, 01:56:04,VALID,996.956,VALID,0,VALID,93.6917,VALID,0,VALID,24.2848,VALID,358,VALID,0,
2010-05-15, 01:57:04,VALID,996.958,VALID,0,VALID,93.6841,VALID,0,VALID,24.3043,VALID,135,VALID,0,
2010-05-15, 01:58:04,VALID,996.937,VALID,0,VALID,93.6688,VALID,0,VALID,24.2848,VALID,135,VALID,0,
2010-05-15, 01:59:04,VALID,996.949,VALID,0,VALID,93.6536,VALID,0,VALID,24.2653,VALID,135,VALID,0,
2010-05-15, 02:00:04,VALID,996.951,VALID,0,VALID,93.646,VALID,0,VALID,24.3062,VALID,135,VALID,0,
2010-05-15, 02:01:04,VALID,996.903,VALID,0,VALID,93.6688,VALID,0,VALID,24.2848,VALID,135,VALID,0,
2010-05-15, 02:02:04,VALID,996.863,VALID,0,VALID,93.6612,VALID,0,VALID,24.2848,VALID,135,VALID,0,
2010-05-15, 02:03:04,VALID,996.873,VALID,0,VALID,93.6688,VALID,0,VALID,24.2848,VALID,135,VALID,0,
2010-05-15, 02:04:04,VALID,996.912,VALID,0,VALID,93.646,VALID,0,VALID,24.2653,VALID,135,VALID,0,
2010-05-15, 02:05:04,VALID,996.905,VALID,0,VALID,93.6307,VALID,0,VALID,24.2848,VALID,135,VALID,0,
2010-05-15, 02:06:04,VALID,996.903,VALID,0,VALID,93.6307,VALID,0,VALID,24.2866,VALID,135,VALID,0,
2010-05-15, 02:07:04,VALID,996.885,VALID,0,VALID,93.6688,VALID,0,VALID,24.2848,VALID,135,VALID,0,
2010-05-15, 02:08:04,VALID,996.878,VALID,0,VALID,93.646,VALID,0,VALID,24.2848,VALID,135,VALID,0,
2010-05-15, 02:09:04,VALID,996.895,VALID,0,VALID,93.6154,VALID,0,VALID,24.2848,VALID,135,VALID,0,
2010-05-15, 02:10:04,VALID,996.866,VALID,0,VALID,93.6383,VALID,0,VALID,24.2848,VALID,145,VALID,0,
2010-05-15, 02:11:04,VALID,996.855,VALID,0,VALID,93.6154,VALID,0,VALID,24.2848,VALID,159,VALID,0,
2010-05-15, 02:12:04,VALID,996.839,VALID,0,VALID,93.6231,VALID,0,VALID,24.2848,VALID,164,VALID,0.766406,
2010-05-15, 02:13:04,VALID,996.814,VALID,0,VALID,93.6231,VALID,0,VALID,24.3062,VALID,167,VALID,0.661328,
2010-05-15, 02:14:04,VALID,996.779,VALID,0,VALID,93.6307,VALID,0,VALID,24.3257,VALID,188,VALID,0.928125,
2010-05-15, 02:15:04,VALID,996.78,VALID,0,VALID,93.6383,VALID,0,VALID,24.3452,VALID,188,VALID,0.751562,
2010-05-15, 02:16:04,VALID,996.766,VALID,0,VALID,93.6307,VALID,0,VALID,24.3433,VALID,182,VALID,0.628516,
2010-05-15, 02:17:04,VALID,996.803,VALID,0,VALID,93.6154,VALID,0,VALID,24.3452,VALID,182,VALID,0.455859,
2010-05-15, 02:18:04,VALID,996.799,VALID,0,VALID,93.6002,VALID,0,VALID,24.3238,VALID,180,VALID,0.594141,
2010-05-15, 02:19:04,VALID,996.818,VALID,0,VALID,93.6002,VALID,0,VALID,24.3043,VALID,171,VALID,0.635938,
2010-05-15, 02:20:04,VALID,996.816,VALID,0,VALID,93.6002,VALID,0.112286,VALID,24.3238,VALID,146,VALID,0.810156,
2010-05-15, 02:21:04,VALID,996.816,VALID,0,VALID,93.5849,VALID,0,VALID,24.3452,VALID,142,VALID,0.708203,
2010-05-15, 02:22:04,VALID,996.798,VALID,0,VALID,93.5697,VALID,0,VALID,24.3257,VALID,142,VALID,0.623438,
2010-05-15, 02:23:04,VALID,996.747,VALID,0,VALID,93.562,VALID,0,VALID,24.3043,VALID,142,VALID,0.378125,
2010-05-15, 02:24:04,VALID,996.744,VALID,0,VALID,93.5544,VALID,0,VALID,24.3043,VALID,142,VALID,0.220313,
2010-05-15, 02:25:04,VALID,996.726,VALID,0,VALID,93.5468,VALID,0,VALID,24.3062,VALID,142,VALID,0,
2010-05-15, 02:26:04,VALID,996.715,VALID,0,VALID,93.5315,VALID,0,VALID,24.3062,VALID,142,VALID,0.0519531,
2010-05-15, 02:27:04,VALID,996.685,VALID,0,VALID,93.5697,VALID,0,VALID,24.3043,VALID,142,VALID,0,
2010-05-15, 02:28:04,VALID,996.693,VALID,0,VALID,93.5544,VALID,0,VALID,24.3062,VALID,144,VALID,0.427734,
2010-05-15, 02:29:04,VALID,996.741,VALID,0,VALID,93.5544,VALID,0,VALID,24.3257,VALID,167,VALID,0.474219,
2010-05-15, 02:30:04,VALID,996.725,VALID,0,VALID,93.562,VALID,0,VALID,24.3043,VALID,167,VALID,0.233203,
2010-05-15, 02:31:04,VALID,996.732,VALID,0,VALID,93.5468,VALID,0,VALID,24.3257,VALID,167,VALID,0.153125,
2010-05-15, 02:32:04,VALID,996.759,VALID,0,VALID,93.5544,VALID,0,VALID,24.3238,VALID,167,VALID,0.113672,
2010-05-15, 02:33:04,VALID,996.735,VALID,0,VALID,93.5468,VALID,0,VALID,24.3238,VALID,167,VALID,0.25625,
2010-05-15, 02:34:04,VALID,996.79,VALID,0,VALID,93.5468,VALID,0,VALID,24.3238,VALID,167,VALID,0.158594,
2010-05-15, 02:35:04,VALID,996.791,VALID,0,VALID,93.5391,VALID,0,VALID,24.3452,VALID,167,VALID,0.293359,
2010-05-15, 02:36:04,VALID,996.84,VALID,0,VALID,93.5086,VALID,0,VALID,24.3452,VALID,109,VALID,0.510547,
2010-05-15, 02:37:04,VALID,996.854,VALID,0,VALID,93.4934,VALID,0,VALID,24.3062,VALID,43,VALID,0.967188,
2010-05-15, 02:38:04,VALID,996.898,VALID,0,VALID,93.5163,VALID,0,VALID,24.2848,VALID,40,VALID,1.11875,
2010-05-15, 02:39:04,VALID,996.905,VALID,0,VALID,93.5468,VALID,0,VALID,24.3043,VALID,40,VALID,1.24141,
2010-05-15, 02:40:04,VALID,996.949,VALID,0,VALID,93.562,VALID,0,VALID,24.3452,VALID,40,VALID,1.41406,
2010-05-15, 02:41:04,VALID,996.958,VALID,0,VALID,93.6002,VALID,0,VALID,24.3433,VALID,33,VALID,1.73438,
2010-05-15, 02:42:04,VALID,996.967,VALID,0,VALID,93.5697,VALID,0,VALID,24.3824,VALID,24,VALID,1.64531,
2010-05-15, 02:43:04,VALID,997.012,VALID,0,VALID,93.5544,VALID,0,VALID,24.3824,VALID,30,VALID,1.18711,
2010-05-15, 02:44:04,VALID,996.967,VALID,0,VALID,93.5544,VALID,0,VALID,24.4019,VALID,36,VALID,0.728906,
2010-05-15, 02:45:04,VALID,996.992,VALID,0,VALID,93.5697,VALID,0,VALID,24.4428,VALID,22,VALID,0.653906,
2010-05-15, 02:46:04,VALID,997.002,VALID,0,VALID,93.5391,VALID,0,VALID,24.4428,VALID,22,VALID,0.294922,
2010-05-15, 02:47:04,VALID,996.965,VALID,0.5,VALID,93.5239,VALID,0,VALID,24.4428,VALID,22,VALID,0.0632813,
2010-05-15, 02:48:04,VALID,996.95,VALID,0,VALID,93.5391,VALID,0,VALID,24.4214,VALID,22,VALID,0,
2010-05-15, 02:49:04,VALID,996.915,VALID,0,VALID,93.5315,VALID,0,VALID,24.4409,VALID,22,VALID,0.297266,
2010-05-15, 02:50:04,VALID,996.921,VALID,0,VALID,93.5315,VALID,0,VALID,24.4623,VALID,22,VALID,0.182031,
2010-05-15, 02:51:04,VALID,996.929,VALID,0,VALID,93.5391,VALID,0,VALID,24.4409,VALID,22,VALID,0,
2010-05-15, 02:52:04,VALID,996.914,VALID,0,VALID,93.5391,VALID,0,VALID,24.4409,VALID,22,VALID,0,
2010-05-15, 02:53:04,VALID,996.906,VALID,0,VALID,93.5086,VALID,0,VALID,24.4409,VALID,22,VALID,0,
2010-05-15, 02:54:04,VALID,996.911,VALID,0,VALID,93.5086,VALID,0,VALID,24.4623,VALID,22,VALID,0,
2010-05-15, 02:55:04,VALID,996.873,VALID,0,VALID,93.5086,VALID,0,VALID,24.4409,VALID,22,VALID,0,
2010-05-15, 02:56:04,VALID,996.917,VALID,0.5,VALID,93.5239,VALID,0,VALID,24.4604,VALID,37,VALID,0.300391,
2010-05-15, 02:57:04,VALID,996.936,VALID,0,VALID,93.501,VALID,0,VALID,24.4623,VALID,105,VALID,0.152734,
2010-05-15, 02:58:04,VALID,996.946,VALID,0.5,VALID,93.501,VALID,0,VALID,24.4409,VALID,105,VALID,0.0683594,
2010-05-15, 02:59:04,VALID,996.928,VALID,0,VALID,93.4857,VALID,0,VALID,24.4428,VALID,105,VALID,0,
2010-05-15, 03:00:04,VALID,996.973,VALID,0,VALID,93.4705,VALID,0,VALID,24.4623,VALID,105,VALID,0,
2010-05-15, 03:01:04,VALID,996.968,VALID,0.5,VALID,93.4628,VALID,0,VALID,24.4623,VALID,105,VALID,0,
2010-05-15, 03:02:04,VALID,997.002,VALID,0,VALID,93.4628,VALID,0,VALID,24.4623,VALID,105,VALID,0,
2010-05-15, 03:03:04,VALID,997.03,VALID,0,VALID,93.4781,VALID,0,VALID,24.4623,VALID,105,VALID,0,
2010-05-15, 03:04:04,VALID,997.033,VALID,0,VALID,93.4934,VALID,0,VALID,24.4818,VALID,103,VALID,0,
2010-05-15, 03:05:04,VALID,997.04,VALID,0.5,VALID,93.4781,VALID,0,VALID,24.4604,VALID,101,VALID,1.57852,
2010-05-15, 03:06:04,VALID,997.04,VALID,0.5,VALID,93.4857,VALID,0,VALID,24.5013,VALID,107,VALID,1.39297,
2010-05-15, 03:07:04,VALID,996.998,VALID,1,VALID,93.501,VALID,0,VALID,24.4818,VALID,109,VALID,1.20039,
2010-05-15, 03:08:04,VALID,996.987,VALID,0.5,VALID,93.501,VALID,0,VALID,24.4818,VALID,105,VALID,1.14297,
2010-05-15, 03:09:04,VALID,996.938,VALID,0.5,VALID,93.4934,VALID,0,VALID,24.4214,VALID,106,VALID,0.987891,
2010-05-15, 03:10:04,VALID,996.905,VALID,0.5,VALID,93.4857,VALID,0,VALID,24.3824,VALID,96,VALID,0.964453,
2010-05-15, 03:11:04,VALID,996.863,VALID,0.5,VALID,93.5163,VALID,0,VALID,24.3647,VALID,92,VALID,0.687891,
2010-05-15, 03:12:04,VALID,996.827,VALID,0.5,VALID,93.5391,VALID,0,VALID,24.3647,VALID,92,VALID,0.527734,
2010-05-15, 03:13:04,VALID,996.838,VALID,0.5,VALID,93.562,VALID,0,VALID,24.3452,VALID,92,VALID,0.23125,
2010-05-15, 03:14:04,VALID,996.826,VALID,0.5,VALID,93.5926,VALID,0,VALID,24.3452,VALID,92,VALID,0.419141,
2010-05-15, 03:15:04,VALID,996.728,VALID,0.5,VALID,93.6078,VALID,0,VALID,24.3452,VALID,92,VALID,0.247656,
2010-05-15, 03:16:04,VALID,996.646,VALID,1,VALID,93.6307,VALID,0,VALID,24.3452,VALID,92,VALID,0.0839844,
2010-05-15, 03:17:04,VALID,996.591,VALID,0.5,VALID,93.6688,VALID,0,VALID,24.3238,VALID,92,VALID,0.656641,
2010-05-15, 03:18:04,VALID,996.654,VALID,0.5,VALID,93.6765,VALID,0,VALID,24.3452,VALID,228,VALID,0.469141,
2010-05-15, 03:19:04,VALID,996.646,VALID,0,VALID,93.707,VALID,0,VALID,24.3433,VALID,228,VALID,0.371094,
2010-05-15, 03:20:04,VALID,996.686,VALID,0,VALID,93.7375,VALID,0,VALID,24.3647,VALID,228,VALID,0.511328,
2010-05-15, 03:21:04,VALID,996.68,VALID,0,VALID,93.7528,VALID,0,VALID,24.3647,VALID,228,VALID,0.198828,
2010-05-15, 03:22:04,VALID,996.645,VALID,0,VALID,93.7528,VALID,0,VALID,24.3647,VALID,228,VALID,0.0886719,
2010-05-15, 03:23:04,VALID,996.625,VALID,0,VALID,93.7604,VALID,0,VALID,24.3647,VALID,311,VALID,0.690234,
2010-05-15, 03:24:04,VALID,996.622,VALID,0,VALID,93.7604,VALID,0,VALID,24.3647,VALID,341,VALID,0.941406,
2010-05-15, 03:25:04,VALID,996.631,VALID,0,VALID,93.768,VALID,0,VALID,24.3629,VALID,350,VALID,1.04727,
2010-05-15, 03:26:04,VALID,996.615,VALID,0,VALID,93.7909,VALID,0,VALID,24.3238,VALID,351,VALID,0.622266,
2010-05-15, 03:27:04,VALID,996.599,VALID,0,VALID,93.8291,VALID,0,VALID,24.3238,VALID,351,VALID,0.446875,
2010-05-15, 03:28:04,VALID,996.603,VALID,0,VALID,93.8138,VALID,0,VALID,24.3238,VALID,351,VALID,0,
2010-05-15, 03:29:04,VALID,996.584,VALID,0,VALID,93.8367,VALID,0,VALID,24.3257,VALID,351,VALID,0,
2010-05-15, 03:30:04,VALID,996.593,VALID,0,VALID,93.8291,VALID,0,VALID,24.3257,VALID,351,VALID,0,
2010-05-15, 03:31:04,VALID,996.618,VALID,0,VALID,93.8443,VALID,0,VALID,24.3257,VALID,351,VALID,0,
2010-05-15, 03:32:04,VALID,996.643,VALID,0,VALID,93.8748,VALID,0,VALID,24.3452,VALID,354,VALID,0.434375,
2010-05-15, 03:33:04,VALID,996.648,VALID,0,VALID,93.852,VALID,0,VALID,24.3257,VALID,148,VALID,0.80625,
2010-05-15, 03:34:04,VALID,996.618,VALID,0,VALID,93.8825,VALID,0,VALID,24.3452,VALID,148,VALID,0.786719,
2010-05-15, 03:35:04,VALID,996.579,VALID,0,VALID,93.8901,VALID,0,VALID,24.3452,VALID,148,VALID,0.507422,
2010-05-15, 03:36:04,VALID,996.548,VALID,0,VALID,93.8901,VALID,0,VALID,24.3257,VALID,148,VALID,0.403125,
2010-05-15, 03:37:04,VALID,996.512,VALID,0,VALID,93.8977,VALID,0,VALID,24.3647,VALID,148,VALID,0.336719,
2010-05-15, 03:38:04,VALID,996.528,VALID,0,VALID,93.9054,VALID,0,VALID,24.3647,VALID,148,VALID,0.308594,
2010-05-15, 03:39:04,VALID,996.522,VALID,0,VALID,93.9054,VALID,0,VALID,24.3842,VALID,148,VALID,0.252734,
2010-05-15, 03:40:04,VALID,996.499,VALID,0,VALID,93.9054,VALID,0,VALID,24.3629,VALID,148,VALID,0,
2010-05-15, 03:41:04,VALID,996.503,VALID,0,VALID,93.9283,VALID,0,VALID,24.4037,VALID,148,VALID,0,
2010-05-15, 03:42:04,VALID,996.501,VALID,0,VALID,93.9283,VALID,0,VALID,24.3842,VALID,148,VALID,0,
2010-05-15, 03:43:04,VALID,996.527,VALID,0,VALID,93.9359,VALID,0,VALID,24.3647,VALID,148,VALID,0,
2010-05-15, 03:44:04,VALID,996.528,VALID,0,VALID,93.913,VALID,0,VALID,24.3452,VALID,148,VALID,0,
2010-05-15, 03:45:04,VALID,996.529,VALID,0,VALID,93.9283,VALID,0,VALID,24.3043,VALID,148,VALID,0,
2010-05-15, 03:46:04,VALID,996.543,VALID,0,VALID,93.9359,VALID,0,VALID,24.3062,VALID,148,VALID,0,
2010-05-15, 03:47:04,VALID,996.522,VALID,0,VALID,93.9359,VALID,0,VALID,24.2866,VALID,148,VALID,0,
2010-05-15, 03:48:04,VALID,996.543,VALID,0,VALID,93.9435,VALID,0,VALID,24.2458,VALID,148,VALID,0,
2010-05-15, 03:49:04,VALID,996.541,VALID,0,VALID,93.9359,VALID,0,VALID,24.2458,VALID,148,VALID,0,
2010-05-15, 03:50:04,VALID,996.562,VALID,0,VALID,93.9359,VALID,0,VALID,24.2476,VALID,148,VALID,0,